Location: Peterborough
(44.3091°N, 78.3197°W)
Time: 13:15:29
(UTC-04:00)

Tiros 1 despin weight - Pass Details

Date: 26 March 2023
Orbit: 586 x 633 km, 48.2° (Epoch: 03 June)

Event Time Altitude Azimuth Distance (km) Brightness Sun altitude
Rises 22:05:29 0° 243° (WSW) 2,800 ? -26.4°
Reaches altitude 10° 22:07:45 10° 243° (WSW) 1,903 ? -26.8°
Enters shadow 22:09:58 30° 241° (WSW) 1,069 ? -27.1°
